Location: Br�ttisellen
(47.4227°N, 8.6287°E)
Time: 23:40:16
(UTC+00:00)

Cosmos 2369 - Pass Details

Date: 09 April 2020
Orbit: 840 x 855 km, 71.0° (Epoch: 23 May)

Event Time Altitude Azimuth Distance (km) Brightness Sun altitude
Rises 21:06:32 0° 331° (NNW) 3,406 8.1 -26.5°
Reaches altitude 10° 21:08:59 10° 331° (NNW) 2,467 7.1 -26.7°
Maximum altitude 21:14:39 82° 245° (WSW) 856 3.6 -27.3°
Enters shadow 21:14:49 80° 213° (SSW) 859 3.6 -27.3°
